Regional Weather Roundup
Issued by NWS Jackson, KY

Home | Current Version | Previous Version | Graphics & Text | Print | Product List | Glossary On
Versions: 1 2 3 4 5 6 7 8 9 10 11 12 13 14 15 16 17 18 19 20 21 22 23 24 25 26 27 28 29 30 31 32 33 34 35 36 37 38 39 40 41 42 43 44 45 46 47 48 49 50
000
ASUS43 KJKL 010110
RWRJKL

EAST KENTUCKY HOURLY WEATHER ROUNDUP
NATIONAL WEATHER SERVICE JACKSON KY
900 PM EDT FRI JUL 31 2015

NOTE: "FAIR" INDICATES FEW OR NO CLOUDS BELOW 12,000 FEET WITH
NO SIGNIFICANT WEATHER AND/OR OBSTRUCTIONS TO VISIBILITY.

* THESE REPORTS ARE NOT UNDER NWS QUALITY CONTROL AND MAY NOT
  REPORT WEATHER SUCH AS PRECIPITATION AND FOG.

KYZ079-080-083-085-087-088-110-112-115-119-120-010200
...EASTERN KENTUCKY...

CITY           SKY/WX    TMP DP  RH WIND       PRES   REMARKS
JACKSON        CLEAR     76  58  53 CALM      30.03R
LONDON         CLEAR     80  58  46 W3        30.03S
SOMERSET*      CLEAR     77  61  57 CALM      30.04S
MONTICELLO*    CLEAR     72  67  84 CALM      30.06R
WILLIAMSBURG*  CLEAR     75  63  64 CALM      30.04R
MIDDLESBORO*   CLEAR     72  64  74 CALM      30.04R
HAZARD APT*    CLEAR     75  61  60 CALM      30.03S
PIKEVILLE APT* CLEAR     77  59  53 CALM      30.02S
BIG SANDY*     CLEAR     77  63  61 CALM      30.01S
MOREHEAD APT*  CLEAR     79  59  50 CALM      30.02R
$$

KYZ035-036-041-042-044-050-067-078-099-010200
...CENTRAL KENTUCKY...

CITY           SKY/WX    TMP DP  RH WIND       PRES   REMARKS
MT STERLING*   CLEAR     72  68  88 NW5       30.02S
FLEMING/MASON* CLEAR     73  61  64 SW6       30.00R
DANVILLE*      CLEAR     77  64  65 SW3       30.03S
RICHMOND*      CLEAR     77  61  57 W3        30.01S
LEXINGTON      CLEAR     77  60  55 SW3       30.01S
FRANKFORT      CLEAR     75  64  68 W3        29.99S
$$

KYZ091>093-OHZ055-061-077-WVZ005-015-034-035-042-010200
...SOUTHERN OHIO/WEST VIRGINIA...

CITY           SKY/WX    TMP DP  RH WIND       PRES   REMARKS
COVINGTON      PTCLDY    78  60  53 SW6       29.97S
COLUMBUS       CLOUDY    80  58  46 NW9       29.92R
DAYTON         MOCLDY    73  65  75 SW5       29.95F
WILMINGTON     MOCLDY    74  62  66 SW7       29.95S
HUNTINGTON       N/A     76  64  66 SW5       29.97R
CHARLESTON       N/A     77  62  59 SW3       29.97R
PINEVILLE*       N/A     67  65  94 MISG      30.08S
BECKLEY          N/A     70  56  61 CALM      30.07R
BLUEFIELD        N/A     72  56  57 W3        30.10R
$$

VAZ002-007-008-TNZ017-027-036-066-071-010200
...SOUTHWEST VIRGINIA/EAST TENNESSEE...

CITY           SKY/WX    TMP DP  RH WIND       PRES   REMARKS
WISE*            N/A     72  54  53 CALM      30.11S
ABINGDON*        N/A     71  59  66 CALM      30.07R
BRISTOL          N/A     73  59  61 N5        30.03R
KNOXVILLE      PTCLDY    79  59  50 N9        30.00S
OAK RIDGE        N/A     80  61  52 CALM      30.03R
CROSSVILLE     CLEAR     74  59  59 NW3       30.08S
NASHVILLE        N/A     83  61  47 N8        30.02R
$$

...KEY TO REMARKS...
VSB - VISIBILITY IN MILES
WCI - WIND CHILL INDEX
HX  - HEAT INDEX

$$



USA.gov is the U.S. government's official web portal to all federal, state and local government web resources and services.